TimeAKST,TemperatureF,Dew PointF,Humidity,Sea Level PressureIn,VisibilityMPH,Wind Direction,Wind SpeedMPH,Gust SpeedMPH,PrecipitationIn,Events,Conditions,WindDirDegrees,DateUTC
12:16 AM,33.8,21.2,60,30.31,10.0,NNE,4.6,-,N/A,,Clear,30,2012-11-07 09:16:00
12:36 AM,32.0,21.2,64,30.31,10.0,NE,3.5,-,N/A,,Clear,50,2012-11-07 09:36:00
12:56 AM,32.0,19.4,60,30.31,10.0,Calm,Calm,-,N/A,,Clear,0,2012-11-07 09:56:00
1:16 AM,32.0,21.2,64,30.32,10.0,North,3.5,-,N/A,,Clear,10,2012-11-07 10:16:00
1:36 AM,32.0,21.2,64,30.34,10.0,Calm,Calm,-,N/A,,Clear,0,2012-11-07 10:36:00
1:56 AM,30.2,21.2,69,30.34,10.0,Calm,Calm,-,N/A,,Clear,0,2012-11-07 10:56:00
2:16 AM,30.2,24.8,80,30.33,10.0,Calm,Calm,-,N/A,,Clear,0,2012-11-07 11:16:00
2:36 AM,30.2,24.8,80,30.32,10.0,NW,4.6,-,N/A,,Clear,320,2012-11-07 11:36:00
2:56 AM,30.2,24.8,80,30.32,10.0,Calm,Calm,-,N/A,,Clear,0,2012-11-07 11:56:00
3:36 AM,30.2,24.8,80,30.33,10.0,Calm,Calm,-,N/A,,Clear,0,2012-11-07 12:36:00
3:56 AM,30.2,26.6,86,30.33,10.0,Calm,Calm,-,N/A,,Clear,0,2012-11-07 12:56:00
4:16 AM,30.2,26.6,86,30.33,10.0,Calm,Calm,-,N/A,,Clear,0,2012-11-07 13:16:00
4:36 AM,30.2,26.6,86,30.33,10.0,Calm,Calm,-,N/A,,Clear,0,2012-11-07 13:36:00
4:56 AM,30.2,26.6,86,30.32,10.0,Calm,Calm,-,N/A,,Clear,0,2012-11-07 13:56:00
5:16 AM,30.2,24.8,80,30.31,10.0,ENE,3.5,-,N/A,,Clear,60,2012-11-07 14:16:00
5:36 AM,32.0,24.8,75,30.30,10.0,ENE,3.5,-,N/A,,Clear,70,2012-11-07 14:36:00
5:56 AM,32.0,24.8,75,30.30,10.0,East,4.6,-,N/A,,Clear,80,2012-11-07 14:56:00
6:16 AM,30.2,24.8,80,30.30,10.0,Calm,Calm,-,N/A,,Clear,0,2012-11-07 15:16:00
6:36 AM,30.2,26.6,86,30.30,10.0,East,5.8,-,N/A,,Clear,80,2012-11-07 15:36:00
6:56 AM,32.0,24.8,75,30.29,10.0,ENE,5.8,-,N/A,,Scattered Clouds,70,2012-11-07 15:56:00
7:16 AM,33.8,24.8,70,30.28,10.0,East,4.6,-,N/A,,Scattered Clouds,80,2012-11-07 16:16:00
7:36 AM,33.8,24.8,70,30.29,10.0,East,4.6,-,N/A,,Scattered Clouds,80,2012-11-07 16:36:00
7:56 AM,33.8,24.8,70,30.29,10.0,ENE,4.6,-,N/A,,Scattered Clouds,60,2012-11-07 16:56:00
8:16 AM,33.8,26.6,75,30.28,10.0,ENE,3.5,-,N/A,,Scattered Clouds,60,2012-11-07 17:16:00
8:36 AM,33.8,28.4,81,30.29,10.0,NE,4.6,-,N/A,,Scattered Clouds,50,2012-11-07 17:36:00
8:56 AM,35.6,28.4,75,30.28,10.0,Calm,Calm,-,N/A,,Mostly Cloudy,0,2012-11-07 17:56:00
9:16 AM,35.6,28.4,75,30.29,10.0,Calm,Calm,-,N/A,,Mostly Cloudy,0,2012-11-07 18:16:00
9:36 AM,35.6,28.4,75,30.29,10.0,Calm,Calm,-,N/A,,Mostly Cloudy,0,2012-11-07 18:36:00
9:56 AM,35.6,30.2,81,30.28,10.0,NE,3.5,-,N/A,,Overcast,40,2012-11-07 18:56:00
10:16 AM,37.4,30.2,75,30.28,10.0,Calm,Calm,-,N/A,,Overcast,0,2012-11-07 19:16:00
10:36 AM,37.4,32.0,81,30.27,10.0,SE,4.6,-,N/A,,Overcast,140,2012-11-07 19:36:00
10:56 AM,37.4,32.0,81,30.27,10.0,Calm,Calm,-,N/A,,Overcast,0,2012-11-07 19:56:00
11:16 AM,37.4,32.0,81,30.26,10.0,Calm,Calm,-,N/A,,Overcast,0,2012-11-07 20:16:00
11:36 AM,37.4,32.0,81,30.25,9.0,SE,3.5,-,N/A,,Overcast,130,2012-11-07 20:36:00
11:56 AM,37.4,32.0,81,30.24,8.0,SSE,4.6,-,N/A,,Overcast,150,2012-11-07 20:56:00
12:16 PM,37.4,33.8,87,30.23,4.0,NE,3.5,-,N/A,,Overcast,50,2012-11-07 21:16:00
12:36 PM,35.6,33.8,93,30.22,4.0,NE,3.5,-,N/A,,Overcast,50,2012-11-07 21:36:00
12:56 PM,35.6,33.8,93,30.20,8.0,NE,4.6,-,N/A,,Overcast,40,2012-11-07 21:56:00
1:16 PM,37.4,33.8,87,30.19,8.0,NE,5.8,-,N/A,,Overcast,40,2012-11-07 22:16:00
1:36 PM,37.4,35.6,93,30.18,9.0,Calm,Calm,-,N/A,,Overcast,0,2012-11-07 22:36:00
1:56 PM,37.4,35.6,93,30.18,8.0,Calm,Calm,-,N/A,,Overcast,0,2012-11-07 22:56:00
2:16 PM,37.4,35.6,93,30.16,7.0,NE,3.5,-,N/A,,Overcast,50,2012-11-07 23:16:00
2:36 PM,37.4,35.6,93,30.15,7.0,Calm,Calm,-,N/A,,Overcast,0,2012-11-07 23:36:00
2:56 PM,37.4,37.4,100,30.14,7.0,Calm,Calm,-,N/A,,Overcast,0,2012-11-07 23:56:00
3:16 PM,39.2,37.4,93,30.12,7.0,East,6.9,-,N/A,,Overcast,80,2012-11-08 00:16:00
3:36 PM,39.2,37.4,93,30.11,7.0,NE,3.5,-,N/A,,Overcast,40,2012-11-08 00:36:00
3:56 PM,39.2,37.4,93,30.09,5.0,Calm,Calm,-,N/A,,Overcast,0,2012-11-08 00:56:00
4:16 PM,39.2,37.4,93,30.08,5.0,ENE,3.5,-,N/A,,Overcast,60,2012-11-08 01:16:00
4:36 PM,39.2,39.2,100,30.06,4.0,NE,3.5,-,N/A,,Overcast,50,2012-11-08 01:36:00
4:56 PM,39.2,39.2,100,30.05,4.0,ENE,5.8,-,N/A,,Overcast,60,2012-11-08 01:56:00
5:16 PM,41.0,39.2,93,30.03,4.0,NE,3.5,-,N/A,,Overcast,50,2012-11-08 02:16:00
5:36 PM,42.8,41.0,93,30.02,5.0,ENE,5.8,-,N/A,,Overcast,70,2012-11-08 02:36:00
5:56 PM,42.8,41.0,93,30.00,5.0,ENE,4.6,-,N/A,,Overcast,70,2012-11-08 02:56:00
6:16 PM,42.8,42.8,100,30.00,6.0,NE,3.5,-,N/A,,Overcast,50,2012-11-08 03:16:00
6:36 PM,44.6,42.8,93,29.99,6.0,Calm,Calm,-,N/A,,Overcast,0,2012-11-08 03:36:00
6:56 PM,44.6,44.6,100,29.98,5.0,Calm,Calm,-,N/A,,Overcast,0,2012-11-08 03:56:00
7:16 PM,46.4,46.4,100,29.97,4.0,SE,8.1,-,N/A,,Overcast,140,2012-11-08 04:16:00
7:36 PM,46.4,46.4,100,29.96,4.0,SSE,10.4,19.6,N/A,,Overcast,150,2012-11-08 04:36:00
7:56 PM,46.4,46.4,100,29.95,2.5,SSE,13.8,20.7,N/A,,Overcast,150,2012-11-08 04:56:00
8:16 PM,46.4,46.4,100,29.94,2.5,SE,13.8,19.6,N/A,,Overcast,140,2012-11-08 05:16:00
8:36 PM,46.4,46.4,100,29.93,2.5,SSE,15.0,18.4,N/A,,Overcast,150,2012-11-08 05:36:00
8:56 PM,46.4,46.4,100,29.93,3.0,SSE,13.8,-,N/A,,Overcast,150,2012-11-08 05:56:00
9:16 PM,44.6,44.6,100,29.92,4.0,SSE,13.8,-,N/A,,Overcast,150,2012-11-08 06:16:00
9:36 PM,44.6,44.6,100,29.91,3.0,SSE,11.5,-,N/A,,Overcast,150,2012-11-08 06:36:00
9:56 PM,44.6,44.6,100,29.91,4.0,SE,12.7,16.1,N/A,,Overcast,140,2012-11-08 06:56:00
10:16 PM,44.6,44.6,100,29.91,3.0,SSE,11.5,-,N/A,,Overcast,150,2012-11-08 07:16:00
10:36 PM,44.6,44.6,100,29.91,3.0,SE,13.8,-,N/A,,Overcast,140,2012-11-08 07:36:00
10:56 PM,44.6,44.6,100,29.91,4.0,SE,11.5,-,N/A,,Overcast,140,2012-11-08 07:56:00
11:16 PM,44.6,44.6,100,29.91,5.0,SE,12.7,-,N/A,,Overcast,140,2012-11-08 08:16:00
11:36 PM,44.6,44.6,100,29.90,5.0,SE,9.2,-,N/A,,Overcast,140,2012-11-08 08:36:00
11:56 PM,46.4,46.4,100,29.90,5.0,SE,6.9,-,N/A,,Overcast,130,2012-11-08 08:56:00